Temperature
12 13 13 14 14 15 15 17 20 21 23 24 25 25 24 24 23 21 20 19 19 19 19 18 18 17 17 17 17 17 17 16 16 16 16 16 16 16 16 16 16 16 16 16 16 16 16 16 16
12 12 13 14 14 14 16 18 19 21 23 24 24 24 24 24 22 21 20 19 18 18 18 18 17 17 17 17 17 17 16 16 16 16 16 16 16 16 16 16 16 16 16 16 16 16 16 16 16
11 12 13 14 14 14 17 19 20 22 22 23 23 23 23 23 22 20 20 19 18 17 17 17 17 17 17 17 17 16 16 16 16 16 16 16 16 16 16 16 16 16 16 17 17 17 17 17 17
11 12 13 13 14 16 17 19 20 21 22 22 22 22 22 22 21 20 19 19 18 17 17 17 17 17 16 16 16 16 16 16 16 16 16 16 16 16 16 16 16 16 17 17 17 17 17 17 16
11 12 12 12 14 16 18 19 20 20 20 21 22 21 21 21 20 20 19 18 18 17 17 17 17 17 16 16 16 16 16 16 16 16 16 16 16 16 16 16 16 16 17 17 16 17 17 16 16
11 12 12 12 14 16 17 19 19 19 19 20 21 20 20 20 20 19 19 18 18 17 17 17 16 16 16 16 16 16 16 16 16 16 16 16 16 16 16 16 16 16 16 16 16 16 16 16 16
11 11 11 13 14 15 17 19 18 18 18 19 20 19 20 19 19 19 19 18 17 17 17 16 16 16 16 16 16 16 16 16 16 16 16 16 16 16 16 16 16 16 16 16 16 16 16 16 16
10 11 11 12 13 14 16 17 18 18 18 18 18 18 18 18 18 18 18 17 17 17 16 16 16 16 16 16 16 15 15 15 15 15 15 15 15 16 16 16 16 16 16 16 16 16 16 16 16
10 9 10 12 13 14 15 16 16 16 16 17 17 17 17 17 17 17 16 16 16 16 16 16 16 16 16 15 15 15 15 15 15 15 15 15 15 15 15 16 16 16 16 16 16 16 16 16 16
10 8 10 12 13 13 14 14 14 14 15 15 16 16 16 17 16 16 16 16 16 16 16 16 15 15 15 15 15 15 15 15 15 15 15 15 15 15 15 15 16 16 16 16 16 16 16 16 15
10 9 11 12 12 12 12 13 13 13 13 14 15 15 15 15 15 15 15 15 16 16 15 15 15 15 15 15 15 15 15 14 14 15 15 14 14 15 15 15 15 15 15 15 15 15 15 15 15
10 10 11 11 11 11 11 11 12 12 12 13 13 13 14 14 14 14 15 15 15 15 15 15 15 15 14 14 14 14 14 14 14 15 14 14 14 14 15 15 15 15 15 15 15 15 15 15 14
10 10 11 11 11 11 11 11 11 11 12 12 12 13 13 13 14 14 14 15 14 15 15 15 14 14 14 14 14 14 14 14 14 14 14 14 14 14 15 15 15 15 15 15 15 15 15 14 14
10 10 10 10 10 10 10 10 11 11 11 11 12 12 12 13 13 14 14 14 14 14 14 14 14 14 14 14 14 14 14 14 14 14 14 14 14 14 14 15 15 15 15 15 15 15 14 14 14
9 9 9 10 10 10 10 9 10 11 11 11 12 12 12 12 13 13 13 14 13 13 14 14 14 14 14 14 14 14 14 14 14 14 14 14 14 14 14 14 15 15 15 15 15 14 14 14 14
8 8 7 10 11 11 10 8 11 11 11 11 11 12 12 12 12 13 13 13 13 13 13 14 13 13 13 13 14 14 14 14 14 14 14 14 14 14 14 14 15 15 15 15 15 14 14 14 14
7 7 8 9 11 11 9 9 11 11 11 11 11 12 12 12 12 12 13 13 13 13 13 13 13 13 13 13 13 13 14 14 14 14 14 14 14 14 14 14 15 15 15 15 15 14 14 14 14
7 7 8 8 10 10 9 9 10 11 11 11 11 12 12 12 12 12 12 13 13 13 12 13 13 13 13 13 13 13 13 13 14 14 14 14 14 14 14 14 14 14 15 15 15 14 14 14 14
7 7 7 9 10 9 9 9 10 11 11 11 11 11 12 12 12 12 12 12 12 12 12 12 12 13 12 12 13 13 13 13 13 13 13 14 14 14 14 14 14 14 15 15 14 14 14 13 13
7 7 7 9 10 10 9 9 10 11 11 11 11 11 12 12 12 12 12 12 12 11 12 12 12 12 12 12 13 13 13 13 13 13 13 13 14 14 14 14 14 14 14 14 14 14 13 13 13
8 8 8 8 9 10 9 9 10 11 11 11 11 11 11 11 11 11 12 11 11 11 12 12 12 12 12 12 12 12 13 13 13 13 13 13 13 14 14 14 14 14 14 14 14 13 13 13 13
8 9 9 8 8 8 9 8 9 10 10 11 11 11 11 11 11 11 11 11 11 11 11 11 12 12 12 12 12 12 12 13 13 13 13 13 13 14 14 14 14 14 14 14 14 13 13 13 13
8 9 9 8 8 8 9 8 9 10 10 10 10 10 10 11 11 11 11 11 11 11 11 11 11 11 12 12 12 12 12 13 13 13 13 13 13 13 13 14 14 14 13 13 13 13 13 13 13
9 8 8 9 8 8 9 9 8 9 9 10 10 10 10 10 11 11 11 11 11 11 11 11 11 11 11 12 12 12 12 12 13 13 13 13 13 13 13 13 13 13 13 13 13 13 13 13 12
9 7 8 8 8 9 10 9 8 9 9 9 10 10 10 10 10 10 10 10 10 11 11 11 11 11 11 11 12 12 12 12 12 12 12 12 13 13 13 13 13 13 13 13 13 13 13 13 12
8 8 8 8 9 9 9 8 8 9 9 9 9 9 9 9 9 10 10 10 10 11 11 11 11 11 11 11 11 12 12 12 12 12 12 12 13 13 13 13 12 13 12 13 13 12 12 12 12
8 8 9 8 9 9 9 9 9 9 9 9 9 9 8 8 8 9 9 10 10 10 10 11 11 11 11 11 11 11 11 11 12 12 12 12 12 12 12 12 12 12 12 12 12 12 12 12 12
9 9 9 8 9 9 9 8 8 8 8 8 8 8 8 8 8 8 9 9 10 10 10 10 10 11 11 11 11 11 11 11 11 12 12 12 12 12 12 12 12 12 12 12 11 11 11 11 11
9 9 9 9 10 9 9 8 8 8 8 8 8 8 8 7 7 8 8 9 9 9 10 10 10 10 10 10 11 11 11 11 11 11 11 11 12 11 11 11 11 11 11 11 11 11 11 11 10
10 10 10 9 9 10 8 7 9 8 8 8 8 8 8 7 7 7 8 8 9 9 9 10 10 10 10 10 10 10 11 10 10 10 11 11 11 11 11 11 11 11 10 10 10 10 10 10 10
Wind_Speed
14 12 8 4 5 9 18 14 14 14 14 11 7 6 7 7 3 1 4 7 14 19 21 23 21 20 19 17 16 17 18 19 19 20 20 20 19 19 19 18 18 17 17 17 17 17 16 16 16
13 9 5 4 8 15 13 14 19 19 16 10 8 6 6 4 3 6 5 8 15 18 20 20 21 20 19 17 17 17 18 19 19 20 20 20 20 19 19 19 18 18 18 17 16 16 16 15 14
12 10 4 5 11 18 12 10 13 15 14 11 8 6 5 2 2 4 7 11 14 16 18 20 22 20 18 18 17 17 18 19 20 20 20 20 20 20 19 19 18 18 18 17 16 15 15 14 13
6 4 4 10 20 18 17 17 15 12 9 10 8 6 3 2 1 5 9 11 13 15 16 21 22 20 18 17 17 17 18 20 20 20 21 21 21 20 20 19 19 18 18 17 16 15 14 13 12
4 4 9 15 22 18 15 15 16 15 12 10 9 9 7 1 5 7 9 10 12 13 15 21 23 21 19 18 17 17 19 20 20 21 21 21 21 21 20 19 19 18 17 16 15 14 13 12 11
4 4 10 17 20 18 17 16 16 16 14 12 10 9 8 3 4 5 8 9 10 13 14 19 22 21 19 18 17 17 18 20 20 21 21 22 22 21 20 20 19 17 16 15 14 14 13 11 10
5 6 14 18 17 16 15 12 14 14 15 13 10 11 8 4 4 5 6 8 8 12 14 14 17 19 19 18 17 16 18 20 21 21 21 21 22 21 21 19 18 17 16 15 14 13 12 11 9
4 5 12 15 17 16 14 13 12 13 13 10 10 10 7 3 2 4 5 6 7 10 12 13 13 15 15 15 16 16 17 19 21 21 20 21 21 21 20 19 17 16 15 14 13 12 11 10 8
5 7 12 13 14 12 12 14 13 12 12 12 10 11 8 3 1 2 4 4 6 9 10 12 12 12 14 15 16 15 16 19 20 19 21 20 18 18 18 18 17 16 15 14 13 12 10 9 7
6 9 14 13 12 13 14 15 13 12 14 13 11 10 9 4 3 4 6 7 8 9 10 10 11 11 11 13 14 13 14 16 17 17 19 16 16 16 16 19 17 16 14 13 12 11 10 9 8
7 10 13 14 13 13 15 15 13 15 16 14 12 10 9 7 6 6 7 8 9 8 8 9 10 10 10 9 10 9 11 13 15 18 18 16 15 14 14 13 13 13 13 11 10 10 10 11 10
12 14 15 15 13 14 14 14 15 16 17 13 14 12 11 11 9 8 8 8 8 8 7 6 8 9 9 10 9 7 7 8 9 16 18 13 8 9 10 10 11 11 11 10 10 9 11 11 9
14 15 16 15 13 14 15 15 16 19 15 13 14 14 13 12 11 8 7 7 6 8 9 7 7 9 9 9 9 9 8 8 10 14 16 13 7 8 8 9 11 11 11 10 8 8 8 6 6
10 12 14 14 15 15 16 17 17 18 13 14 14 14 14 14 11 9 6 7 7 8 9 8 8 9 10 9 8 8 7 8 10 11 14 15 11 8 7 7 7 8 10 11 9 7 4 4 3
11 14 15 15 16 13 12 17 20 18 14 16 15 14 14 13 10 10 7 7 8 8 9 9 9 8 11 10 10 7 7 8 8 9 14 14 13 10 7 7 6 6 10 10 7 5 4 2 2
9 9 9 10 11 10 9 16 14 10 12 13 13 12 12 11 10 9 7 7 7 6 8 9 9 9 10 10 10 7 8 8 7 9 11 13 13 13 7 6 6 8 8 6 3 3 3 2 3
7 7 11 11 9 7 9 13 11 9 11 12 12 11 11 10 9 8 7 7 7 7 7 9 8 9 8 9 10 9 8 8 8 9 9 11 13 13 8 5 5 8 5 4 4 3 3 3 3
6 8 11 11 7 9 12 15 13 10 11 11 11 10 10 10 10 8 7 7 7 7 7 7 8 8 8 8 8 8 8 8 8 7 8 11 11 13 9 5 6 7 5 4 4 4 3 2 3
11 13 16 15 10 10 14 15 14 10 9 10 9 9 10 9 7 6 6 6 7 6 6 7 8 8 7 7 8 9 9 8 8 8 9 11 11 11 8 6 6 6 6 6 6 4 4 3 2
13 14 14 12 8 8 12 14 12 9 10 9 8 8 7 7 6 6 6 6 7 7 6 7 7 8 9 8 7 7 8 6 6 7 7 9 9 10 8 7 6 6 6 6 6 5 4 3 3
12 11 11 11 10 9 9 8 7 6 6 5 4 5 5 7 8 8 7 7 6 6 6 6 6 7 9 8 7 7 6 5 5 6 6 7 8 8 7 7 6 6 6 5 5 5 5 4 3
9 8 9 10 7 4 4 3 4 3 2 3 3 4 4 4 5 6 6 7 6 5 5 6 7 6 7 8 8 10 8 7 6 6 6 7 7 8 8 7 6 6 5 5 5 4 4 5 3
6 8 11 10 7 6 4 2 3 2 2 2 1 3 2 2 4 5 5 6 6 5 5 6 7 6 6 6 8 8 7 6 6 6 7 6 5 6 7 7 6 6 5 6 6 5 5 4 4
7 7 10 7 4 3 2 0 4 6 7 5 3 1 2 2 3 3 4 5 4 5 5 5 6 6 6 6 6 7 8 8 9 8 7 6 5 5 6 6 6 6 6 6 6 6 6 5 4
3 4 2 2 2 0 3 3 4 8 8 7 5 5 5 4 5 5 5 6 6 6 6 6 6 6 5 6 6 6 6 7 8 8 7 7 5 4 6 5 6 6 6 6 5 6 6 6 6
4 3 3 3 1 1 4 4 4 7 8 9 8 8 9 9 9 8 7 6 6 6 6 6 6 4 4 5 6 6 6 5 5 5 5 6 5 4 5 6 6 6 7 6 6 5 5 5 5
4 3 3 3 2 1 3 3 5 9 10 11 11 11 12 11 10 10 10 9 8 8 7 6 6 4 4 4 5 5 5 5 5 5 4 4 4 4 5 6 6 5 6 6 6 5 6 5 5
4 5 4 3 3 3 4 5 6 9 10 11 12 12 11 11 11 11 11 10 9 9 8 7 8 7 5 4 4 4 4 4 4 4 4 4 4 5 6 5 6 6 5 6 6 5 6 6 6
3 3 4 4 2 2 3 4 6 7 8 10 11 10 10 11 11 11 10 9 9 9 9 9 9 8 7 6 5 5 4 3 3 2 2 3 3 4 5 5 6 6 6 6 6 6 6 7 6
3 4 5 4 5 4 4 4 5 7 8 9 10 10 10 10 10 10 10 10 10 10 9 9 8 8 7 6 6 5 5 4 3 2 2 3 3 3 4 4 4 5 5 6 7 7 7 7 8
Wind_Direction
305 278 261 252 243 234 240 240 257 258 255 259 271 272 261 259 307 55 162 155 129 142 149 157 159 160 160 160 161 161 161 161 160 158 155 151 147 145 141 136 134 129 122 116 112 107 104 102 101
298 287 262 238 233 235 241 233 243 253 264 274 283 285 271 263 84 110 137 127 133 141 148 158 158 160 161 161 161 161 163 162 161 159 155 152 149 146 142 139 135 128 122 117 113 110 108 106 105
275 267 243 230 232 236 244 235 232 239 251 262 270 276 269 273 103 106 123 131 134 142 150 156 158 161 162 162 162 163 165 164 161 160 157 153 150 147 144 140 134 126 122 120 117 114 112 110 109
272 231 239 240 241 239 248 267 283 284 264 251 250 255 253 287 64 107 124 134 139 145 149 154 158 161 163 163 163 164 165 165 163 161 157 153 150 147 144 140 131 126 125 124 122 120 116 113 113
251 240 232 240 247 253 259 263 274 280 281 273 252 242 250 271 91 110 130 143 148 149 147 155 160 162 163 163 164 165 166 166 163 161 157 154 151 148 144 138 132 131 130 129 127 125 122 118 117
241 230 236 243 249 249 252 262 273 273 274 276 272 258 251 194 136 140 142 151 154 148 147 157 162 161 162 164 165 166 166 166 163 161 158 156 152 148 144 139 137 137 136 134 132 130 127 124 121
252 249 247 255 263 262 260 258 259 264 264 267 275 270 259 250 148 149 149 155 155 148 149 155 162 161 161 162 165 167 166 164 162 159 157 154 149 147 146 143 143 143 141 138 137 135 133 129 127
263 271 258 257 264 269 280 285 278 275 269 271 274 269 263 260 131 135 147 152 153 150 153 158 163 162 163 162 163 164 165 162 158 155 152 147 145 145 145 145 147 147 145 142 141 139 137 135 136
263 248 252 257 266 279 294 293 293 301 291 276 269 273 288 310 128 166 170 167 165 164 161 164 166 165 163 164 164 160 158 156 151 148 145 142 144 145 148 149 150 148 147 147 146 145 144 145 154
215 243 252 266 281 293 298 296 301 300 289 278 275 283 287 278 233 211 204 194 185 177 173 172 169 167 164 164 158 161 158 155 153 151 150 153 153 154 155 150 152 149 148 150 152 154 159 169 179
224 246 265 275 288 296 293 291 293 286 277 277 276 280 284 269 245 225 214 210 198 181 180 178 175 171 168 158 159 165 161 164 162 157 163 165 154 148 141 147 148 149 153 157 159 168 190 205 191
243 255 267 275 284 286 285 284 280 273 271 282 292 293 291 281 264 239 222 215 210 187 181 185 182 171 171 164 163 165 164 169 164 164 170 164 148 146 149 155 162 165 175 174 169 193 212 216 185
258 261 265 270 270 271 274 270 271 266 272 277 281 279 278 274 258 252 229 204 206 197 184 183 192 179 175 171 169 170 168 169 162 163 170 157 147 154 155 163 168 175 182 174 181 207 203 200 191
273 281 281 278 274 269 267 267 264 262 262 267 267 269 269 264 256 252 238 213 201 203 186 180 190 185 179 176 174 169 166 165 157 160 165 156 156 158 156 160 166 176 176 171 187 205 184 186 181
280 281 279 265 257 253 262 264 254 255 254 257 257 255 258 256 251 247 224 212 205 205 189 183 194 192 185 180 178 172 163 159 154 158 163 159 159 157 156 156 161 168 166 168 185 201 165 162 161
270 266 263 259 246 242 234 260 258 250 248 251 253 252 253 250 245 245 218 205 202 203 191 185 193 192 196 187 177 173 169 161 155 158 162 162 159 158 156 150 160 162 160 162 166 167 149 163 170
238 249 262 275 254 248 238 264 268 256 250 248 251 248 247 247 241 237 216 200 190 195 194 184 191 187 198 197 179 169 169 161 155 158 162 165 161 159 154 150 158 158 150 152 164 164 163 176 191
269 275 282 279 274 268 260 264 269 255 251 249 248 241 240 238 235 225 210 191 187 185 190 184 185 185 187 194 178 165 164 160 156 159 162 163 160 159 156 150 158 152 146 154 159 167 175 173 175
277 280 283 283 283 270 265 268 269 261 253 248 240 236 232 231 223 210 195 174 171 170 184 184 183 186 181 185 179 170 168 162 154 158 161 160 158 159 157 155 159 153 156 164 167 169 176 180 154
267 275 281 286 288 273 269 271 271 264 254 244 230 233 227 220 210 189 175 168 166 165 176 174 181 182 179 187 175 167 160 156 150 149 157 156 156 158 159 157 159 158 160 169 177 174 168 177 166
269 267 276 285 298 271 270 276 267 269 257 239 236 238 236 223 196 183 173 166 154 161 168 163 169 179 178 179 165 159 148 140 150 158 162 163 158 158 159 161 159 161 164 175 179 174 170 183 195
279 279 283 287 289 279 265 287 300 284 272 245 238 243 229 206 176 173 161 153 156 167 167 166 161 170 170 163 163 168 168 163 161 162 159 160 161 160 161 163 161 160 162 170 172 166 167 171 188
268 294 289 280 277 281 267 259 329 351 340 303 271 251 219 165 159 159 156 152 156 159 162 149 150 152 157 158 166 170 167 156 147 152 154 159 162 161 164 167 164 167 170 174 170 165 165 175 182
274 286 280 261 250 274 308 198 17 7 348 349 6 10 96 94 113 136 139 128 134 139 136 134 142 145 153 153 166 169 166 157 154 154 162 164 163 164 168 170 168 172 175 181 179 174 174 180 181
280 298 289 245 215 330 34 65 31 3 1 4 23 35 62 81 105 116 114 116 117 121 130 129 126 127 144 152 160 160 161 159 163 161 169 169 168 170 176 171 170 173 180 182 175 175 182 180 178
298 294 322 329 359 54 44 51 29 11 16 25 39 50 55 60 69 77 86 98 101 95 92 102 104 101 120 148 153 148 156 152 153 156 159 164 170 171 170 172 178 180 178 175 174 177 185 179 184
311 311 287 290 304 73 68 74 55 29 35 38 44 54 55 58 60 63 67 73 76 75 71 77 89 86 94 118 139 140 150 156 157 156 155 152 158 158 163 172 176 180 176 174 172 184 184 175 181
270 302 310 316 346 74 89 50 10 15 36 43 48 52 53 54 55 57 56 56 59 62 64 65 71 68 66 87 116 127 123 136 146 148 163 172 171 167 169 176 181 182 179 178 179 183 182 177 180
321 330 312 296 304 32 76 47 12 31 45 55 55 55 55 57 56 56 55 54 54 53 53 54 56 55 49 49 64 89 92 91 99 126 157 162 158 159 170 176 181 184 181 178 183 186 180 182 181
309 338 336 345 342 27 88 64 28 50 56 62 62 59 56 56 58 59 56 54 50 49 49 49 48 46 41 41 49 59 69 74 82 99 116 132 150 162 168 168 177 180 177 178 183 185 185 186 186
Height
1493 1496 1499 1501 1501 1495 1485 1478 1472 1468 1464 1462 1462 1462 1463 1466 1470 1477 1475 1474 1474 1475 1477 1482 1486 1490 1493 1496 1499 1502 1505 1508 1511 1515 1518 1521 1523 1526 1528 1530 1532 1534 1536 1538 1539 1541 1542 1543 1544
1492 1496 1499 1498 1496 1491 1480 1473 1471 1467 1463 1462 1461 1462 1462 1465 1469 1472 1473 1474 1474 1475 1477 1481 1486 1489 1493 1496 1499 1502 1504 1508 1511 1514 1518 1521 1524 1526 1529 1531 1533 1535 1537 1539 1541 1542 1544 1545 1546
1492 1495 1497 1493 1487 1481 1473 1464 1463 1462 1462 1462 1462 1462 1463 1466 1468 1470 1472 1473 1474 1476 1478 1481 1485 1489 1492 1495 1498 1501 1504 1507 1511 1514 1517 1521 1524 1527 1529 1531 1534 1536 1538 1540 1542 1544 1545 1547 1548
1493 1495 1494 1489 1478 1471 1471 1466 1461 1460 1460 1461 1462 1463 1464 1467 1468 1469 1471 1473 1474 1476 1478 1481 1485 1488 1492 1495 1498 1500 1503 1507 1510 1514 1517 1520 1523 1527 1529 1532 1534 1536 1539 1541 1543 1545 1547 1548 1550
1492 1492 1490 1483 1474 1470 1466 1465 1463 1461 1460 1460 1460 1461 1463 1466 1466 1468 1470 1473 1474 1476 1477 1480 1484 1488 1491 1494 1497 1500 1503 1506 1510 1513 1517 1520 1523 1526 1529 1532 1535 1537 1540 1542 1544 1546 1548 1550 1551
1491 1488 1486 1478 1470 1467 1466 1465 1464 1461 1460 1460 1461 1461 1462 1465 1465 1467 1469 1471 1474 1475 1476 1479 1483 1487 1490 1493 1497 1500 1503 1506 1509 1513 1516 1520 1523 1526 1529 1532 1535 1538 1540 1543 1545 1547 1549 1550 1552
1490 1486 1480 1473 1469 1465 1462 1462 1461 1460 1460 1460 1461 1461 1462 1464 1464 1465 1467 1469 1473 1474 1476 1478 1481 1485 1489 1492 1496 1499 1502 1505 1509 1512 1516 1519 1522 1526 1529 1532 1535 1538 1541 1543 1545 1547 1549 1551 1553
1486 1485 1476 1472 1469 1466 1463 1461 1459 1459 1458 1460 1460 1460 1461 1463 1463 1464 1465 1467 1470 1472 1474 1477 1479 1482 1486 1491 1495 1498 1502 1505 1508 1512 1515 1519 1522 1526 1529 1532 1535 1538 1541 1543 1546 1548 1550 1552 1553
1485 1486 1477 1472 1469 1465 1463 1461 1459 1458 1457 1457 1458 1458 1460 1460 1461 1462 1464 1465 1467 1470 1472 1474 1477 1480 1484 1488 1493 1497 1501 1504 1507 1511 1514 1518 1521 1525 1529 1532 1535 1538 1541 1543 1546 1548 1550 1552 1554
1483 1481 1473 1469 1467 1465 1464 1463 1461 1460 1457 1456 1456 1456 1457 1458 1459 1460 1461 1462 1464 1466 1469 1472 1474 1477 1481 1485 1490 1495 1498 1502 1505 1509 1513 1517 1520 1524 1528 1531 1534 1538 1541 1543 1546 1548 1550 1552 1553
1476 1474 1469 1467 1467 1466 1464 1463 1462 1461 1457 1457 1456 1456 1455 1455 1456 1457 1458 1460 1461 1463 1465 1468 1471 1474 1478 1482 1487 1492 1496 1500 1504 1507 1512 1516 1519 1523 1526 1530 1533 1536 1540 1543 1545 1548 1550 1551 1553
1472 1469 1467 1466 1465 1465 1463 1462 1460 1458 1457 1456 1454 1453 1452 1452 1452 1454 1455 1456 1458 1460 1462 1464 1468 1470 1475 1479 1484 1489 1494 1498 1501 1505 1510 1514 1517 1521 1524 1528 1532 1535 1538 1541 1544 1547 1549 1551 1553
1468 1466 1465 1463 1463 1462 1460 1459 1457 1454 1453 1452 1451 1450 1449 1449 1449 1450 1451 1453 1454 1456 1459 1460 1464 1467 1471 1476 1481 1487 1491 1496 1499 1503 1508 1512 1515 1519 1523 1527 1530 1534 1537 1540 1543 1546 1548 1550 1552
1466 1464 1462 1460 1459 1458 1457 1453 1452 1447 1449 1448 1446 1445 1445 1446 1445 1446 1447 1448 1450 1452 1455 1457 1461 1464 1468 1472 1478 1484 1489 1493 1497 1501 1505 1510 1514 1518 1521 1525 1529 1533 1536 1539 1542 1545 1548 1549 1551
1465 1463 1459 1455 1453 1452 1453 1447 1444 1442 1443 1442 1441 1441 1441 1441 1441 1441 1442 1444 1446 1448 1450 1453 1458 1461 1465 1469 1474 1481 1486 1490 1494 1498 1503 1508 1512 1516 1520 1524 1528 1531 1535 1538 1541 1544 1546 1548 1549
1464 1462 1458 1448 1446 1445 1451 1443 1436 1436 1436 1435 1435 1435 1435 1435 1436 1437 1438 1441 1442 1444 1447 1450 1454 1458 1462 1466 1471 1476 1482 1487 1491 1496 1500 1505 1510 1514 1518 1522 1526 1529 1533 1536 1539 1542 1544 1546 1547
1462 1460 1452 1446 1441 1441 1443 1438 1431 1431 1430 1429 1429 1429 1430 1431 1431 1433 1434 1436 1438 1440 1443 1446 1450 1453 1458 1462 1468 1472 1478 1483 1488 1493 1498 1503 1508 1512 1516 1520 1524 1527 1530 1534 1537 1539 1541 1543 1545
1457 1455 1449 1445 1439 1439 1438 1433 1428 1426 1425 1424 1424 1424 1424 1425 1426 1428 1429 1432 1435 1437 1439 1442 1446 1449 1453 1459 1463 1469 1474 1480 1485 1490 1495 1500 1505 1509 1514 1518 1521 1524 1528 1531 1534 1536 1539 1541 1542
1456 1454 1450 1441 1436 1436 1432 1428 1423 1421 1420 1419 1419 1419 1419 1420 1422 1424 1426 1428 1431 1433 1436 1439 1442 1446 1450 1455 1460 1464 1470 1477 1482 1487 1492 1497 1502 1506 1511 1515 1518 1522 1525 1528 1531 1533 1536 1538 1540
1452 1451 1446 1438 1433 1433 1429 1424 1418 1416 1415 1414 1414 1415 1415 1417 1419 1420 1422 1424 1427 1430 1433 1436 1439 1442 1447 1452 1457 1462 1467 1474 1479 1484 1489 1494 1499 1503 1508 1511 1515 1519 1522 1525 1528 1530 1532 1535 1537
1447 1446 1442 1438 1433 1429 1427 1422 1416 1412 1411 1411 1411 1412 1413 1414 1415 1417 1419 1421 1424 1427 1430 1433 1436 1440 1444 1449 1454 1460 1466 1471 1477 1482 1487 1491 1496 1500 1504 1508 1512 1515 1519 1521 1524 1527 1529 1531 1533
1445 1438 1437 1436 1436 1433 1428 1428 1416 1412 1411 1410 1409 1409 1409 1410 1412 1414 1417 1420 1423 1426 1428 1430 1434 1438 1442 1447 1451 1456 1462 1467 1473 1478 1483 1488 1492 1497 1501 1505 1508 1511 1515 1518 1520 1523 1525 1527 1529
1442 1437 1436 1434 1434 1433 1425 1427 1421 1413 1412 1410 1409 1408 1408 1409 1411 1413 1416 1418 1421 1424 1427 1428 1432 1436 1440 1444 1449 1455 1460 1465 1471 1476 1480 1484 1489 1493 1497 1501 1504 1507 1511 1514 1516 1519 1521 1523 1525
1438 1437 1432 1430 1432 1431 1423 1424 1425 1420 1417 1412 1410 1409 1409 1409 1411 1413 1415 1417 1420 1423 1425 1428 1431 1435 1439 1444 1448 1452 1457 1463 1467 1471 1476 1481 1486 1489 1493 1497 1500 1503 1506 1509 1511 1514 1516 1518 1520
1438 1440 1436 1432 1431 1427 1420 1424 1430 1424 1419 1415 1413 1411 1410 1411 1411 1413 1415 1418 1421 1423 1426 1428 1431 1435 1439 1442 1446 1451 1456 1460 1464 1468 1474 1478 1481 1485 1488 1492 1495 1498 1501 1503 1506 1508 1511 1513 1515
1438 1438 1439 1435 1429 1425 1422 1428 1433 1426 1422 1419 1416 1415 1414 1414 1415 1416 1418 1420 1422 1424 1426 1429 1431 1434 1437 1441 1445 1449 1454 1458 1462 1466 1470 1474 1477 1481 1484 1488 1491 1494 1496 1498 1501 1503 1506 1507 1509
1437 1436 1432 1434 1428 1427 1428 1431 1431 1428 1425 1423 1421 1420 1420 1420 1420 1420 1421 1423 1425 1427 1429 1431 1433 1436 1438 1441 1444 1448 1452 1456 1460 1464 1467 1470 1474 1477 1480 1483 1486 1489 1491 1493 1495 1497 1500 1501 1503
1437 1434 1433 1432 1428 1428 1431 1436 1440 1436 1432 1430 1428 1427 1427 1426 1426 1426 1426 1428 1430 1431 1433 1435 1436 1437 1439 1442 1445 1448 1451 1454 1457 1461 1464 1467 1470 1473 1476 1478 1480 1483 1485 1487 1489 1491 1493 1495 1497
1437 1435 1432 1429 1425 1428 1436 1447 1442 1439 1437 1436 1435 1434 1433 1433 1432 1432 1432 1434 1435 1435 1436 1437 1439 1440 1442 1444 1446 1448 1451 1453 1455 1459 1462 1465 1467 1469 1471 1473 1476 1478 1479 1481 1484 1486 1488 1489 1492
1436 1434 1432 1435 1431 1426 1439 1454 1444 1443 1442 1441 1440 1440 1439 1438 1438 1438 1438 1439 1439 1440 1440 1441 1442 1444 1445 1446 1447 1449 1451 1453 1455 1458 1460 1462 1464 1465 1467 1469 1471 1473 1474 1476 1478 1480 1483 1485 1486